GW3653 Weather Reports


Display with metric or nautical units.
time (UTC)temp
F
wind
direction
speed
MPH
gust
MPH
rain 1hr
in
rain 24hr
in
rain mn
in
humidity
%
barometer
mb
20260506001539 57 0.0 0.0 0.00 0.00 0.00 86 1033.0
20260506000539 56 0.0 0.0 0.00 0.00 0.00 86 1032.8
20260505235519 56 0.0 0.0 0.00 0.00 0.00 86 1032.7
20260505234519 56 0.0 0.0 0.00 0.00 0.00 86 1032.6
20260505233519 55 0.0 0.0 0.00 0.00 0.00 85 1032.4
20260505232519 55 0.0 0.0 0.00 0.00 0.00 85 1032.4
20260505231539 55 0.0 0.0 0.00 0.00 0.00 84 1032.3
20260505230519 55 0.0 0.0 0.00 0.00 0.00 84 1032.2
20260505225519 55 0.0 0.0 0.00 0.00 0.00 84 1032.1
20260505224519 55 0.0 0.0 0.00 0.00 0.00 84 1031.8
20260505223519 55 0.0 0.0 0.00 0.00 0.00 84 1031.7
20260505222519 55 0.0 0.0 0.00 0.00 0.00 84 1031.7
20260505221519 55 0.0 0.0 0.00 0.00 0.00 84 1031.7
20260505220519 55 0.0 0.0 0.00 0.00 0.00 83 1031.6
20260505215539 55 0.0 0.0 0.00 0.00 0.00 82 1031.6
20260505214519 55 0.0 0.0 0.00 0.00 0.00 81 1031.6
20260505213519 55 0.0 0.0 0.00 0.00 0.00 81 1031.5
20260505212519 55 0.0 0.0 0.00 0.00 0.00 81 1031.5
20260505211519 55 0.0 0.0 0.00 0.00 0.00 81 1031.4
20260505210519 55 0.0 0.0 0.00 0.00 0.00 81 1031.3
20260505205519 55 0.0 1.0 0.00 0.00 0.00 81 1031.3
20260505204518 55 0.0 0.0 0.00 0.00 0.00 80 1031.2
20260505203519 55 0.0 0.0 0.00 0.00 0.00 80 1031.2
20260505202519 55 0.0 0.0 0.00 0.00 0.00 79 1031.1
20260505201519 55 0.0 0.0 0.00 0.00 0.00 78 1031.1
20260505200539 55 0.0 0.0 0.00 0.00 0.00 78 1031.0
20260505195519 56 0.0 1.0 0.00 0.00 0.00 78 1030.9
20260505194519 56 0.0 0.0 0.00 0.00 0.00 77 1030.9
20260505193519 56 0.0 0.0 0.00 0.00 0.00 77 1030.8
20260505192518 56 0.0 0.0 0.00 0.00 0.00 76 1030.8
20260505191519 57 0.0 1.0 0.00 0.00 0.00 77 1030.8
20260505190518 56 0.0 2.0 0.00 0.00 0.00 78 1030.8
20260505185538 57 0.0 1.0 0.00 0.00 0.00 79 1030.8
20260505184518 57 0.0 1.0 0.00 0.00 0.00 78 1030.8
20260505183518 57 0.0 1.0 0.00 0.00 0.00 77 1030.7
20260505182518 57 0.0 1.0 0.00 0.00 0.00 76 1031.0
20260505181519 57 0.0 0.0 0.00 0.00 0.00 76 1031.1
20260505180518 57 0.0 0.0 0.00 0.00 0.00 76 1031.0
20260505175538 57 0.0 0.0 0.00 0.00 0.00 76 1031.0
20260505174538 57 0.0 2.0 0.00 0.00 0.00 77 1031.0
20260505173518 58 0.0 3.0 0.00 0.00 0.00 76 1031.0
20260505172518 58 0.0 1.0 0.00 0.00 0.00 76 1030.9
20260505171706 58 90 1.0 2.0 0.00 0.00 0.00 76 1030.9
20260505170518 58 0.0 3.0 0.00 0.00 0.00 75 1030.8
20260505165518 58 90 1.0 4.0 0.00 0.00 0.00 76 1030.7
20260505164538 58 0.0 0.0 0.00 0.00 0.00 78 1030.8
20260505163538 57 0.0 1.0 0.00 0.00 0.00 78 1030.8
20260505162518 58 0.0 2.0 0.00 0.00 0.00 78 1030.8
20260505161518 58 0.0 3.0 0.00 0.00 0.00 79 1030.8
20260505160518 58 0.0 1.0 0.00 0.00 0.00 79 1030.8
20260505152518 59 90 1.0 5.0 0.00 0.00 0.00 78 1030.7
20260505151518 59 113 1.0 3.0 0.00 0.00 0.00 78 1030.7
20260505150518 59 113 1.0 4.0 0.00 0.00 0.00 79 1030.8
20260505140518 58 90 1.0 5.0 0.00 0.00 0.00 81 1031.0
20260505124518 57 0.0 0.0 0.00 0.00 0.00 87 1030.3
20260505123518 57 0.0 0.0 0.00 0.00 0.00 87 1030.2
20260505122538 57 0.0 0.0 0.00 0.00 0.00 87 1030.2
20260505121518 57 0.0 0.0 0.00 0.00 0.00 87 1030.2
20260505120538 57 0.0 0.0 0.00 0.00 0.00 87 1030.2
20260505115538 57 0.0 0.0 0.00 0.00 0.00 86 1030.2
20260505114538 58 0.0 0.0 0.00 0.00 0.00 86 1030.1
20260505113518 58 0.0 0.0 0.00 0.00 0.00 86 1030.0
20260505112538 58 0.0 0.0 0.00 0.00 0.00 85 1030.0
20260505111518 58 0.0 0.0 0.00 0.00 0.00 85 1029.9
20260505110518 58 0.0 0.0 0.00 0.00 0.00 85 1029.9
20260505101518 59 0.0 0.0 0.00 0.00 0.00 85 1029.5
20260505100518 59 0.0 0.0 0.00 0.00 0.00 85 1029.5
20260505095518 59 0.0 1.0 0.00 0.00 0.00 84 1029.4
20260505094517 59 0.0 1.0 0.00 0.00 0.00 84 1029.3
20260505093518 59 0.0 1.0 0.00 0.00 0.00 84 1029.3
20260505092518 59 0.0 1.0 0.00 0.00 0.00 84 1029.3
20260505091518 59 0.0 1.0 0.00 0.00 0.00 84 1029.3
20260505090518 59 0.0 0.0 0.00 0.00 0.00 84 1029.1
20260505085518 59 0.0 0.0 0.00 0.00 0.00 84 1029.1
20260505084518 59 0.0 2.0 0.00 0.00 0.00 84 1029.0
20260505083518 59 113 1.0 3.0 0.00 0.00 0.00 84 1028.9
20260505082517 59 0.0 2.0 0.00 0.00 0.00 85 1029.0
20260505081517 59 0.0 1.0 0.00 0.00 0.00 85 1028.9
20260505080518 59 0.0 1.0 0.00 0.00 0.00 85 1028.9
20260505075517 59 0.0 1.0 0.00 0.00 0.00 86 1028.8
20260505074517 59 0.0 2.0 0.00 0.00 0.00 85 1028.9
20260505073517 60 90 1.0 4.0 0.00 0.00 0.00 84 1028.8
20260505072557 60 135 1.0 3.0 0.00 0.00 0.00 84 1028.6
20260505071517 60 90 1.0 4.0 0.00 0.00 0.00 84 1028.5
20260505070517 60 90 1.0 5.0 0.00 0.00 0.00 84 1028.3
20260505065517 59 90 1.0 4.0 0.00 0.00 0.00 85 1028.3
20260505064517 59 113 2.0 4.0 0.00 0.00 0.00 86 1028.2
20260505063517 59 113 1.0 6.0 0.00 0.00 0.00 87 1028.3
20260505062517 59 113 2.0 5.0 0.00 0.00 0.00 87 1028.3
20260505061517 59 113 3.0 7.0 0.00 0.00 0.00 86 1028.3
20260505060539 61 90 3.0 9.0 0.00 0.00 0.00 82 1028.3
20260505055537 63 225 1.0 3.0 0.00 0.00 0.00 78 1028.1
20260505054519 62 225 1.0 4.0 0.00 0.00 0.00 78 1028.1
20260505053519 62 135 1.0 4.0 0.00 0.00 0.00 78 1028.2
20260505052519 62 270 1.0 3.0 0.00 0.00 0.00 78 1028.2
20260505051519 62 0.0 2.0 0.00 0.00 0.00 79 1028.2
20260505050539 62 0.0 2.0 0.00 0.00 0.00 79 1028.2
20260505041519 61 225 2.0 5.0 0.00 0.00 0.00 81 1028.9
20260505040519 61 270 1.0 3.0 0.00 0.00 0.00 82 1029.1
20260505035519 60 270 1.0 3.0 0.00 0.00 0.00 83 1029.1
20260505034519 59 0.0 1.0 0.00 0.00 0.00 85 1029.3
20260505033519 59 0.0 1.0 0.00 0.00 0.00 86 1029.5
20260505032539 59 0.0 2.0 0.00 0.00 0.00 84 1029.5
20260505031519 59 225 2.0 5.0 0.00 0.00 0.00 82 1029.5
20260505030518 60 248 1.0 5.0 0.00 0.00 0.00 81 1029.5
20260505025519 60 0.0 1.0 0.00 0.00 0.00 79 1029.5
20260505024519 60 0.0 1.0 0.00 0.00 0.00 79 1029.5
20260505023559 60 0.0 1.0 0.00 0.00 0.00 80 1029.6
20260505022519 59 248 2.0 5.0 0.00 0.00 0.00 80 1029.7
20260505021518 60 248 1.0 5.0 0.00 0.00 0.00 81 1029.7
20260505020519 60 225 2.0 4.0 0.00 0.00 0.00 80 1029.7
20260505015518 60 248 2.0 4.0 0.00 0.00 0.00 80 1029.8
20260505014519 60 203 1.0 2.0 0.00 0.00 0.00 83 1029.6
20260505013518 59 270 1.0 3.0 0.00 0.00 0.00 84 1029.6
20260505012518 59 203 1.0 5.0 0.00 0.00 0.00 86 1029.5
20260505011519 58 225 1.0 3.0 0.00 0.00 0.00 88 1029.5
20260505010518 58 203 1.0 3.0 0.00 0.00 0.00 89 1029.5
20260505005518 57 113 1.0 2.0 0.00 0.00 0.00 90 1029.5
20260505004519 57 0.0 1.0 0.00 0.00 0.00 91 1029.4
20260505003518 57 90 1.0 2.0 0.00 0.00 0.00 92 1029.4
20260505002518 56 0.0 0.0 0.00 0.00 0.00 92 1029.3